Regional Weather Roundup
Issued by NWS

Home | Current Version | Previous Version | Text Only | Print | Product List | Glossary Off
Versions: 1 2 3 4 5 6 7 8 9 10 11 12 13 14 15 16 17 18 19 20 21 22 23 24 25 26 27 28 29 30 31 32 33 34 35 36 37 38 39 40 41 42 43 44 45 46 47 48 49 50

000
ASUS45 KBOU 230207
RWRCO

WEATHER ROUNDUP FOR COLORADO
NATIONAL WEATHER SERVICE DENVER/BOULDER CO
800 PM MDT FRI MAY 22 2015

NOTE: "FAIR" INDICATES FEW OR NO CLOUDS BELOW 12000 FEET WITH NO
SIGNIFICANT WEATHER AND/OR OBSTRUCTIONS TO VISIBILITY.

COZ001>005-013-030-031-230300-
...NORTHWEST COLORADO...

CITY           SKY/WX    TMP DP  RH WIND       PRES   REMARKS
CRAIG          MOCLDY    51  42  71 NE3       29.96S
HAYDEN         MOCLDY    46  37  71 SE12      29.99S
MEEKER         MOCLDY    51  42  71 MISG      29.97S
MOUNT WERNER   NOT AVBL
STEAMBOAT SPGS MOCLDY    47  37  69 CALM      30.00F
WALDEN         PTCLDY    41  34  75 SE7       30.04S
$$

COZ006>008-011-230300-
...WEST CENTRAL VALLEYS...

CITY           SKY/WX    TMP DP  RH WIND       PRES   REMARKS
GRAND JUNCTION CLOUDY    54  47  77 SE13      29.89R THUNDER
MONTROSE       CLOUDY    52  39  61 S12       29.98S
EAGLE          MOCLDY    54  45  71 E7        30.00R
RIFLE          MOCLDY    59  35  40 CALM      29.91S
DELTA          CLOUDY    59  40  49 MISG      29.94R
NUCLA          CLOUDY    55  36  47 E23       29.98R
$$

COZ017>023-064>068-230300-
...SOUTHWEST COLORADO...

CITY           SKY/WX    TMP DP  RH WIND       PRES   REMARKS
DURANGO        CLOUDY    56  33  42 S16G29    29.97R
CORTEZ         CLEAR     52  44  74 E13       29.92F
PAGOSA SPRINGS TSTM      49  32  53 SW31G59   30.06R
TELLURIDE      LGT RAIN  40  38  93 SE24G35   30.10R
WOLF CREEK PAS NOT AVBL
$$

COZ009-010-012-014-032>034-037-058>063-230300-
...CENTRAL COLORADO...

CITY           SKY/WX    TMP DP  RH WIND       PRES   REMARKS
ASPEN          CLOUDY    47  38  71 CALM      30.02R
BUENA VISTA    CLOUDY    47  35  63 W16G22    30.04S
COPPER MTN     CLOUDY    36  27  69 SE12      30.19R
BERTHOUD PASS  HAZE      28  21  74 MISG      30.22S VSB<1/4
COTTONWOOD PAS LGT RAIN  39  36  87 NW8       30.12R
GUNNISON       CLOUDY    48  32  53 W10       30.08R
KREMMLING      PTCLDY    46  37  71 E3        30.04R
LEADVILLE      LGT SNOW  35  33  92 S14G28    30.12R FOG     WCI  26
MONARCH PASS   CLOUDY    32  27  80 SW24G30   30.30R WCI  19
SALIDA         CLOUDY    56  33  41 SW6       30.09R
SUNLIGHT       CLOUDY    36  36 100 CALM      30.16R
WILKERSON PASS CLOUDY    36  32  87 S6        30.21R
$$

COZ069>075-230300-
...SAN LUIS VALLEY/SANGRE DE CRISTO MOUNTAINS...

CITY           SKY/WX    TMP DP  RH WIND       PRES   REMARKS
ALAMOSA        MOCLDY    56  27  32 SW18G29   30.03R
LA VETA PASS   CLEAR    N/A N/A N/A MISG      30.15S
SAGUACHE       CLOUDY    52  32  46 NW7       30.04R
$$

COZ035-036-038>040-230300-
...NORTHERN COLORADO FRONT RANGE...

CITY           SKY/WX    TMP DP  RH WIND       PRES   REMARKS
DENVER INTL AP MOCLDY    51  46  83 E7        30.01R
DMNS CITY PARK   N/A     52  45  78 NE3       30.01R
AURORA         LGT RAIN  49  49  98 E7        30.02R
FRONT RANGE AP MOCLDY    52  50  93 E7        30.02R
ERIE MUNI ARPT CLOUDY    53  49  86 CALM      30.01R
BOULDER MUN AP MOCLDY    50  48  93 CALM      30.01R
CENTENNIAL     CLOUDY    50  48  93 E10       30.02R
BROOMFIELD     MOCLDY    52  48  87 N9        30.03R
FORT COLLINS   CLOUDY    52  45  76 CALM      30.03R
LONGMONT       CLOUDY    53  48  83 N3        30.03R
$$

COZ041-046-047-076>085-087-088-230300-
...PIKES PEAK/PALMER DIVIDE AND SOUTHERN FOOTHILLS...

CITY           SKY/WX    TMP DP  RH WIND       PRES   REMARKS
COLO. SPRINGS  TSTM      58  44  60 NW10      30.00R
A. F. ACADEMY  LGT RAIN  52  46  82 NW10      30.01R
ELLICOTT       NOT AVBL
FALCON         CLOUDY    50  44  79 NE13G21   30.03R
FORT CARSON    MOCLDY    58  44  59 NW9       29.96R
LIMON          LGT RAIN  51  48  89 N10       29.99R
MONUMENT HILL  NOT AVBL
TRINIDAD       CLEAR     62  44  51 S23G30    29.93R
$$

COZ042>045-048>051-090-091-230300-
...NORTHEAST COLORADO...

CITY           SKY/WX    TMP DP  RH WIND       PRES   REMARKS
GREELEY ARPT   MOCLDY    52  45  76 NE5       30.01R
AKRON          FOG       50  50 100 E13       30.01R VSB<1/4
BURLINGTON     CLOUDY    54  52  93 E21G29    29.97R
WRAY           CLOUDY   N/A N/A N/A E14       30.01S
STERLING       CLOUDY    50  46  87 E7        30.02R
HOLYOKE        NOT AVBL
FORT MORGAN    MOCLDY    51  48  89 E12G20    30.02R
$$

COZ086-089-092>099-230300-
...SOUTHEAST COLORADO...

CITY           SKY/WX    TMP DP  RH WIND       PRES   REMARKS
PUEBLO         PTCLDY    60  50  69 NE13      29.87R
LA JUNTA       CLEAR     69  50  50 S13       29.85R
LAMAR          PTCLDY    65  52  62 S18G26    29.87R
SPRINGFIELD      N/A     60  51  72 S17       29.96R
$$



USA.gov is the U.S. government's official web portal to all federal, state and local government web resources and services.